#timestamp,LO_Frequency,Hit,StdDev 
1544961615.4,286047002.1,N
1544961635.2,286047002.4,N
1544961655.0,286047002.3,N
1544961655.9,286047002.3,N
1544961675.8,286047001.0,N
1544961695.6,286047000.4,N
1544961715.5,286046998.2,N
1544961735.3,286047002.4,N
1544961755.1,286047002.3,N
1544961775.9,286047000.6,N
1544961795.7,286046998.3,N
1544961815.6,286047000.8,N
1544961835.4,286047002.7,N
1544961855.2,286047002.5,N
1544961875.1,286047001.9,N
1544961876.0,286047001.9,N
1544961895.8,286047002.4,N
1544961915.7,286047000.1,N
1544961935.5,286047002.8,N
1544961955.3,286047002.0,N
1544961975.2,286047004.2,N
1544961995.9,286047003.5,N
1544962015.7,286047003.8,N
1544962035.6,286047003.7,N
1544962055.4,286047004.2,N
1544962075.3,286047001.8,N
1544962095.1,286047003.4,N
1544962096.0,286047003.4,N
1544962115.8,286047004.3,N
1544962135.7,286047002.1,N
1544962155.5,286047001.5,N
1544962175.3,286047002.1,N
1544962195.2,286047004.1,N
1544962215.0,286047004.1,N
1544962215.9,286047004.1,N
1544962235.8,286047004.4,N
1544962255.6,286047003.5,N
1544962275.4,286047003.4,N
1544962295.3,286047003.3,N
1544962315.1,286047003.7,N
1544962335.8,286047004.2,Y
1544962355.7,286047002.0,P
1544962375.5,286047002.2,P
1544962395.4,286047001.5,P
1544962415.2,286047002.1,Y
1544962435.0,286046999.0,P
1544962435.9,286046999.0,N
1544962455.8,286046999.4,N
1544962475.6,286046998.6,N
1544962495.5,286046998.3,N
1544962515.3,286046998.6,N
1544962535.1,286046998.7,N
1544962555.9,286046997.0,N
1544962575.7,286046996.6,N
1544962595.5,286046999.6,N
1544962615.4,286046996.5,N
1544962635.2,286046997.2,N
1544962655.1,286046999.1,N
1544962656.0,286046999.1,N
1544962675.8,286046996.9,N
1544962695.6,286046996.7,N
1544962715.5,286046996.9,N
1544962735.3,286046996.6,N
1544962755.1,286046996.5,N
1544962775.9,286046996.6,N
1544962795.7,286046998.8,N
1544962815.6,286046999.4,N
1544962835.4,286047001.2,N
1544962855.2,286046998.4,N
1544962875.1,286046998.2,N
1544962876.0,286046998.2,N
1544962895.8,286046998.6,N
1544962915.6,286046998.4,N
1544962935.5,286046998.9,N
1544962955.3,286046996.6,N
1544962975.2,286046999.5,N
1544962995.3,286046996.7,N
1544963015.1,286046996.6,N
1544963035.9,286047001.2,N
1544963055.7,286046998.1,N
1544963075.6,286046999.9,N
1544963095.4,286047002.8,N
1544963115.2,286047001.1,N
1544963135.1,286046999.3,N
1544963136.0,286046999.3,N
1544963155.8,286046999.1,N
1544963175.7,286046998.8,N
1544963195.6,286046998.1,N
1544963215.4,286047001.2,N
1544963235.2,286047000.2,N
1544963255.1,286047000.1,N
1544963256.0,286047000.1,N
1544963275.8,286047001.7,N
1544963295.7,286047001.8,N
1544963315.5,286047000.0,N
1544963335.3,286047000.3,N
1544963355.2,286046998.2,N
1544963375.0,286047001.1,N
1544963375.9,286047001.1,N
1544963395.8,286046998.1,N
1544963415.2,286046998.6,N
1544963435.0,286047001.2,N
1544963436.0,286047001.2,N
1544963455.8,286047000.4,N
1544963475.6,286046999.9,N
1544963495.5,286046998.9,N
1544963515.3,286046998.3,N
1544963535.1,286046998.7,N
1544963555.9,286046998.7,N
1544963575.7,286046998.5,N
1544963595.6,286046998.1,N
1544963615.4,286046998.6,N
1544963635.2,286047000.9,N
1544963655.1,286046998.2,N
1544963656.0,286046998.2,N
1544963675.8,286046998.3,N
1544963695.6,286047000.7,N
1544963715.5,286047000.3,N
1544963735.3,286046999.8,N
1544963755.2,286047000.0,N
1544963775.9,286047000.9,N
1544963795.7,286047002.4,N
1544963815.6,286047002.6,N
1544963835.7,286046999.7,N
1544963855.5,286046998.2,N
1544963875.3,286047001.0,N
1544963895.2,286047001.1,N
1544963915.0,286046999.8,N
1544963915.9,286046999.8,N
1544963935.8,286047001.0,N
1544963955.6,286046998.7,N
1544963975.4,286047000.7,N
1544963995.3,286047000.7,N
1544964015.1,286046998.5,N
1544964035.8,286046998.4,N
1544964055.7,286047001.2,N
1544964075.5,286047000.7,N
1544964095.4,286047000.7,N
1544964115.2,286047001.2,N
1544964135.0,286046998.5,N
1544964135.9,286046998.5,N
1544964155.8,286046998.8,N
1544964175.6,286047001.1,N
1544964195.4,286047002.8,N
1544964215.3,286047001.1,N
1544964235.1,286046999.0,N
1544964255.9,286046999.4,N
1544964275.7,286046998.5,N
1544964295.5,286047000.3,N
1544964315.4,286047002.1,N
1544964335.2,286047001.4,N
1544964355.0,286047001.6,N
1544964356.0,286047001.6,N
1544964375.8,286047001.6,N
1544964395.6,286047004.0,Y
1544964415.5,286047001.4,P
1544964435.3,286047001.4,N
1544964455.2,286047002.4,P
1544964475.7,286047002.2,N
1544964495.6,286047002.7,Y
1544964515.4,286047000.2,P
1544964535.3,286047001.9,N
1544964555.1,286047002.7,P
1544964556.0,286047002.7,N
1544964575.8,286047002.8,Y
1544964595.7,286046998.5,P
1544964615.5,286046999.4,N
1544964635.3,286046997.5,N
1544964655.2,286046994.9,Y
1544964675.0,286046996.7,P
1544964675.9,286046996.7,N
1544964695.8,286046997.0,N
1544964715.6,286046997.5,N
1544964735.4,286046996.7,Y
1544964755.3,286047000.1,P
1544964775.1,286047002.4,N
1544964795.9,286047002.8,N
1544964815.7,286047002.0,N
1544964835.5,286047002.3,N
1544964855.4,286047002.7,N
1544964875.2,286047000.2,N
1544964895.0,286047000.3,N
1544964895.9,286047000.3,N
1544964915.8,286047000.6,N
1544964935.6,286047000.4,N
1544964955.5,286047002.4,N
1544964975.3,286047002.8,N
1544964995.1,286046999.9,N
1544965015.9,286047000.1,N
1544965035.7,286047000.2,N
1544965055.5,286047002.6,N
1544965075.4,286047001.7,N
1544965095.2,286047000.1,N
1544965115.1,286047002.8,N
1544965116.0,286047002.8,N
1544965135.8,286047000.0,N
1544965155.6,286047002.7,N
1544965175.5,286046999.7,N
1544965195.3,286046999.8,N
